Location: Old Broadwell Mill Observatory
(33.8015°N, 85.8137°W)
Time: 13:26:09
(UTC-05:00)

Gurwin Techsat 1B - Visible Passes

Search period start: 20 April 2014 00:00
Search period end: 30 April 2014 00:00
Orbit: 812 x 815 km, 98.5° (Epoch: 19 April)

Date Brightness Start Highest point End Pass type
(mag) Time Alt. Az. Time Alt. Az. Time Alt. Az.
20 Apr 10.6 02:47:41 10° NE 02:51:39 21° E 02:51:45 21° E visible
20 Apr 9.2 04:26:48 10° N 04:31:41 39° WNW 04:32:59 33° WSW visible
21 Apr 11.2 02:26:48 10° ENE 02:28:50 12° E 02:28:57 12° E visible
21 Apr 8.6 04:03:55 10° N 04:09:11 65° WNW 04:10:11 53° SW visible
22 Apr 8.6 03:41:16 10° NNE 03:46:36 76° ESE 03:47:23 63° SSE visible
22 Apr 10.5 05:24:09 10° NW 05:25:51 12° WNW 05:27:33 10° W visible
23 Apr 9.4 03:18:52 10° NNE 03:23:56 45° E 03:24:35 43° ESE visible
23 Apr 10.1 04:59:51 10° NNW 05:03:31 19° WNW 05:05:49 15° W visible
24 Apr 10.2 02:56:47 10° NE 03:01:13 27° E 03:01:47 26° ESE visible
24 Apr 9.5 04:36:30 10° N 04:41:07 31° WNW 04:43:00 25° WSW visible
25 Apr 10.9 02:35:18 10° ENE 02:38:26 16° E 02:38:58 16° E visible
25 Apr 8.8 04:13:30 10° N 04:18:38 52° WNW 04:20:12 39° WSW visible
26 Apr 8.5 03:50:45 10° NNE 03:56:05 86° WNW 03:57:23 53° SSW visible
27 Apr 9.1 03:28:14 10° NNE 03:33:27 56° E 03:34:34 47° SE visible
27 Apr 10.3 05:09:52 10° NNW 05:12:54 16° WNW 05:15:48 10° W visible
28 Apr 9.9 03:05:59 10° NNE 03:10:46 33° E 03:11:46 31° ESE visible
28 Apr 9.8 04:46:15 10° NNW 04:50:31 25° WNW 04:52:59 18° WSW visible
29 Apr 10.6 02:44:11 10° NE 02:48:00 20° E 02:48:56 19° ESE visible
29 Apr 9.1 04:23:07 10° N 04:28:04 41° WNW 04:30:10 29° WSW visible
